Location: Unspecified
(0.0000°N, 0.0000°E)
Time: 21:44:41
(UTC+00:00)

Alouette 1 - Pass Details

Date: 27 October 2021
Orbit: 985 x 1019 km, 80.5° (Epoch: 07 December)

Event Time Altitude Azimuth Distance (km) Brightness Sun altitude
Rises 19:06:51 0° 330° (NNW) 3,734 9.3 -20.2°
Reaches altitude 10° 19:09:51 10° 317° (NW) 2,781 8.7 -20.9°
Maximum altitude 19:14:55 25° 265° (W) 1,905 8.3 -22.2°
Drops below altitude 10° 19:20:00 10° 212° (SSW) 2,770 9.0 -23.4°
Sets 19:23:01 0° 198° (SSW) 3,716 9.5 -24.1°
